DW7322 Weather Reports


time (UTC)temp
C
wind
direction
speed
KPH
gust
KPH
rain 1hr
cm
rain 24hr
cm
rain mn
cm
humidity
%
barometer
mb
20260906121543 19 75 0.0 0.0 0.00 0.00 0.00 96 1018.6
20260906120056 18 75 0.0 0.0 0.00 0.00 0.00 95 1018.3
20260906114544 18 75 0.0 0.0 0.00 0.00 0.00 95 1017.9
20260906113107 18 17 0.0 0.0 0.00 0.00 0.00 95 1017.5
20260906113006 18 17 0.0 0.0 0.00 0.00 0.00 95 1017.5
20260906111526 19 323 0.0 1.6 0.00 0.00 0.00 95 1017.4
20260906110044 19 268 0.0 1.6 0.00 0.00 0.00 95 1017.3
20260906104536 18 14 0.0 0.0 0.00 0.00 0.00 95 1017.3
20260906103053 18 15 0.0 0.0 0.00 0.00 0.00 95 1017.0
20260906101521 18 14 0.0 0.0 0.00 0.00 0.00 95 1016.8
20260906100018 18 16 0.0 0.0 0.00 0.00 0.00 95 1016.8
20260906094547 18 15 0.0 0.0 0.00 0.00 0.00 95 1016.7
20260906093100 18 16 0.0 0.0 0.00 0.00 0.00 95 1016.7
20260906093002 18 15 0.0 0.0 0.00 0.00 0.00 95 1016.7
20260906091531 18 17 0.0 0.0 0.00 0.00 0.00 95 1016.7
20260906090007 18 17 0.0 0.0 0.00 0.00 0.00 95 1016.7
20260906084533 18 17 0.0 0.0 0.00 0.00 0.00 95 1016.7
20260906083054 19 30 0.0 0.0 0.00 0.00 0.00 95 1016.6
20260906081517 19 30 0.0 0.0 0.00 0.00 0.00 95 1016.8
20260906080008 19 29 0.0 0.0 0.00 0.00 0.00 94 1016.8
20260906074527 19 30 0.0 0.0 0.00 0.00 0.00 94 1016.8
20260906073046 20 29 0.0 0.0 0.00 0.00 0.00 94 1016.8
20260906071507 20 30 0.0 0.0 0.00 0.00 0.00 94 1016.8
20260906070003 20 30 0.0 0.0 0.00 0.00 0.00 93 1017.0
20260906064528 20 30 0.0 0.0 0.00 0.00 0.00 93 1016.9
20260906063043 20 30 0.0 0.0 0.00 0.00 0.00 92 1016.8
20260906061508 21 29 0.0 0.0 0.00 0.00 0.00 92 1016.8
20260906060011 21 32 0.0 0.0 0.00 0.00 0.00 91 1016.9
20260906054531 21 32 0.0 0.0 0.00 0.00 0.00 91 1016.8
20260906053043 21 46 0.0 3.2 0.00 0.00 0.00 91 1016.7
20260906051515 21 258 0.0 0.0 0.00 0.00 0.00 91 1016.7
20260906050123 21 21 0.0 0.0 0.00 0.00 0.00 91 1016.5
20260906044521 21 75 0.0 0.0 0.00 0.00 0.00 91 1016.4
20260906043046 21 75 0.0 0.0 0.00 0.00 0.00 91 1016.3
20260906041510 21 75 0.0 0.0 0.00 0.00 0.00 90 1016.1
20260906040005 21 75 0.0 0.0 0.00 0.00 0.00 89 1015.8
20260906034530 21 68 0.0 0.0 0.00 0.00 0.00 89 1015.7
20260906033047 21 346 0.0 0.0 0.00 0.00 0.00 89 1015.6
20260906031514 22 234 0.0 0.0 0.00 0.00 0.00 89 1015.6
20260906030038 22 17 0.0 0.0 0.00 0.00 0.00 88 1015.5
20260906024527 22 164 0.0 0.0 0.00 0.00 0.00 88 1015.5
20260906023056 22 8 0.0 0.0 0.00 0.00 0.00 87 1015.5
20260906021504 22 112 0.0 0.0 0.00 0.00 0.00 87 1015.4
20260906020004 22 115 0.0 1.6 0.00 0.00 0.00 87 1015.4
20260906014531 22 8 0.0 3.2 0.00 0.00 0.00 87 1015.3
20260906013039 22 356 0.0 1.6 0.00 0.00 0.00 87 1015.4
20260906011501 22 49 0.0 1.6 0.00 0.00 0.00 87 1015.4
20260906010116 22 27 0.0 1.6 0.00 0.00 0.00 86 1015.3
20260906004601 23 39 0.0 0.0 0.00 0.00 0.00 85 1015.2
20260906003022 23 80 0.0 0.0 0.00 0.00 0.00 84 1014.9
20260906001542 24 8 0.0 0.0 0.00 0.00 0.00 84 1014.7
20260906000101 24 131 0.0 0.0 0.00 0.00 0.00 83 1014.6
20260905234542 25 354 0.0 1.6 0.00 0.00 0.00 82 1014.2
20260905233008 26 342 0.0 0.0 0.00 0.00 0.00 80 1014.2
20260905231536 26 328 0.0 0.0 0.00 0.00 0.00 78 1014.1
20260905230056 27 139 0.0 1.6 0.00 0.00 0.00 76 1014.0
20260905224548 26 294 0.0 0.0 0.00 0.00 0.00 75 1013.7
20260905223015 26 12 0.0 0.0 0.00 0.00 0.00 75 1013.6
20260905221539 27 14 0.0 0.0 0.00 0.00 0.00 73 1013.6
20260905220057 27 312 0.0 0.0 0.00 0.00 0.00 74 1013.6
20260905214551 28 71 0.0 0.0 0.00 0.00 0.00 71 1013.5
20260905213017 28 135 0.0 0.0 0.00 0.00 0.00 75 1013.7
20260905211542 27 229 0.0 0.0 0.00 0.00 0.00 76 1013.7
20260905210111 27 16 0.0 0.0 0.00 0.00 0.00 77 1013.8
20260905204557 27 280 0.0 0.0 0.00 0.00 0.00 77 1014.0
20260905203021 27 4 0.0 0.0 0.00 0.00 0.00 77 1014.2
20260905201542 26 6 0.0 0.0 0.00 0.00 0.00 80 1014.1
20260905200131 26 52 0.0 1.6 0.00 0.00 0.00 81 1014.2
20260905194554 27 38 0.0 0.0 0.00 0.00 0.00 78 1014.3
20260905193021 27 354 0.0 0.0 0.00 0.00 0.00 79 1014.1
20260905191544 28 1 0.0 0.0 0.00 0.00 0.00 77 1014.1
20260905190112 28 274 0.0 0.0 0.00 0.00 0.00 78 1014.1
20260905184602 28 68 0.0 0.0 0.00 0.00 0.00 76 1014.1
20260905184509 28 286 0.0 0.0 0.00 0.00 0.00 75 1014.1
20260905183025 28 286 0.0 0.0 0.00 0.00 0.00 75 1014.2
20260905181551 28 1 0.0 0.0 0.00 0.00 0.00 75 1014.2
20260905180116 28 349 0.0 0.0 0.00 0.00 0.00 77 1014.2
20260905174508 28 77 0.0 0.0 0.00 0.00 0.00 77 1014.0
20260905173039 29 274 0.0 0.0 0.00 0.00 0.00 77 1014.0
20260905171556 29 309 0.0 0.0 0.00 0.00 0.00 75 1014.1
20260905170111 29 4 0.0 0.0 0.00 0.00 0.00 76 1014.2
20260905164509 29 342 0.0 0.0 0.00 0.00 0.00 76 1014.3
20260905163024 28 244 0.0 0.0 0.00 0.00 0.00 77 1014.2
20260905161535 27 64 0.0 0.0 0.00 0.00 0.00 81 1014.3
20260905160059 27 83 0.0 0.0 0.00 0.00 0.00 83 1014.4
20260905154550 26 287 0.0 0.0 0.00 0.00 0.00 84 1014.4
20260905153057 26 213 0.0 0.0 0.00 0.00 0.00 84 1014.3
20260905151515 26 107 0.0 0.0 0.00 0.00 0.00 87 1014.1
20260905150001 24 53 0.0 1.6 0.00 0.00 0.00 90 1014.0
20260905144519 24 141 0.0 1.6 0.00 0.00 0.00 91 1013.6
20260905143030 23 148 0.0 1.6 0.00 0.00 0.00 92 1013.6
20260905141547 23 112 0.0 1.6 0.00 0.00 0.00 93 1013.7
20260905140113 23 1 0.0 0.0 0.00 0.00 0.00 93 1013.6
20260905134502 23 336 0.0 4.8 0.00 0.00 0.00 93 1013.4
20260905133029 23 92 0.0 1.6 0.00 0.00 0.00 93 1013.3
20260905131546 23 346 0.0 1.6 0.00 0.00 0.00 94 1013.5
20260905130057 23 79 0.0 1.6 0.00 0.00 0.00 94 1013.5
20260905124552 23 120 0.0 1.6 0.00 0.00 0.00 95 1012.9
20260905123104 23 332 0.0 0.0 0.00 0.00 0.00 95 1012.7
20260905123003 23 332 0.0 0.0 0.00 0.00 0.00 95 1012.6